Regional Weather Roundup
Issued by NWS

Home | Current Version | Previous Version | Graphics & Text | Print | Product List | Glossary On
Versions: 1 2 3 4 5 6 7 8 9 10 11 12 13 14 15 16 17 18 19 20 21 22 23 24 25 26 27 28 29 30 31 32 33 34 35 36 37 38 39 40 41 42 43 44 45 46 47 48 49 50
000
ASUS43 KLMK 300310
RWRKY
KENTUCKY REGIONAL WEATHER ROUNDUP
NATIONAL WEATHER SERVICE LOUISVILLE KY
1100 PM EDT WED JUL 29 2015

NOTE "FAIR" INDICATES FEW OR NO CLOUDS BELOW 12,000 FEET
WITH NO SIGNIFICANT WEATHER AND/OR OBSTRUCTIONS TO VISIBILITY.

KYZ001>023-026-027-061>063-070>075-300400-
WESTERN AND SOUTH CENTRAL KENTUCKY

CITY           SKY/WX    TMP DP  RH WIND       PRES   REMARKS
PADUCAH        MOCLDY    82  76  81 N6        30.04R
HENDERSON      CLOUDY    81  75  83 NW5       30.03R
OWENSBORO      CLOUDY    82  78  88 CALM      30.04R HX  91
HOPKINSVILLE   CLOUDY    75  71  85 W1        30.04R
BOWLING GREEN  CLOUDY    76  72  87 SE5       30.05S
GLASGOW        CLOUDY   N/A N/A N/A CALM      30.06S
$$

KYZ024-025-028>034-038-045-046-053-300400-
NORTH CENTRAL KENTUCKY

CITY           SKY/WX    TMP DP  RH WIND       PRES   REMARKS
LOUISVILLE/SDF CLOUDY    78  71  79 SW7       30.01R
LOUISVILLE/LOU CLOUDY    77  70  79 CALM      30.02R
FORT KNOX      CLOUDY    75  73  95 S3        30.02S
$$

KYZ035>037-039>044-047>052-055>060-089>105-300400-
NORTHEAST KENTUCKY

CITY           SKY/WX    TMP DP  RH WIND       PRES   REMARKS
LEXINGTON      CLOUDY    72  70  93 SW5       30.04R
COVINGTON      CLOUDY    75  73  93 W3        30.01R
FRANKFORT      CLOUDY    72  70  93 CALM      30.02R
$$

KYZ054-064>069-076>088-106>120-300400-
SOUTHEAST KENTUCKY

CITY           SKY/WX    TMP DP  RH WIND       PRES   REMARKS
JACKSON        PTCLDY    77  74  90 CALM      30.04R
LONDON         MOCLDY    79  67  66 NW8       30.06R
SOMERSET       LGT RAIN  72  72 100 SW6       30.08R
MIDDLESBORO    MOCLDY    77  73  88 CALM      30.06R
MONTICELLO     LGT RAIN  74  73  96 CALM      30.10R
$$




USA.gov is the U.S. government's official web portal to all federal, state and local government web resources and services.